Location: Newark
(47.5833°N, 8.1500°E)
Time: 19:31:26
(UTC+00:00)

Courier 1B Rocket - All Passes

Search period start: 28 October 2020 00:00
Search period end: 07 November 2020 00:00
Orbit: 921 x 1202 km, 28.2° (Epoch: 27 October)

Date Brightness Start Highest point End Pass type
(mag) Time Alt. Az. Time Alt. Az. Time Alt. Az.
28 Oct - 17:39:41 10° S 17:41:08 11° SSE 17:42:35 10° SSE visible
28 Oct - 19:29:06 10° SSW 19:33:16 16° S 19:37:33 10° SE visible
28 Oct - 21:21:58 10° SW 21:25:33 14° SSW 21:29:12 10° SSE night (unlit)
29 Oct - 18:28:52 10° SSW 18:32:32 15° S 18:36:18 10° SE visible
29 Oct - 20:20:50 10° SW 20:24:47 15° S 20:28:49 10° SSE visible
30 Oct - 17:29:06 10° S 17:31:50 13° SSE 17:34:38 10° SE visible
30 Oct - 19:20:02 10° SW 19:24:01 16° S 19:28:06 10° SSE visible
30 Oct - 21:14:11 10° SSW 21:16:15 11° SSW 21:18:20 10° S visible
31 Oct - 18:19:33 10° SSW 18:23:16 15° S 18:27:07 10° SE visible
31 Oct - 20:12:25 10° SW 20:15:30 13° SSW 20:18:40 10° SSE visible
01 Nov - 17:19:24 10° SSW 17:22:35 14° S 17:25:51 10° SE visible
01 Nov - 19:11:18 10° SW 19:14:46 14° S 19:18:20 10° SSE visible
02 Nov - 16:19:49 10° S 16:21:57 12° SSE 16:24:06 10° SSE daylight
02 Nov - 18:10:34 10° SSW 18:14:03 14° S 18:17:39 10° SSE visible
02 Nov - 20:05:23 10° SSW 20:06:14 10° SSW 20:07:05 10° S visible
03 Nov - 17:10:08 10° SSW 17:13:22 14° S 17:16:42 10° SSE visible
03 Nov - 19:03:07 10° SSW 19:05:32 12° SSW 19:08:00 10° S visible
04 Nov - 16:10:03 10° SSW 16:12:44 13° S 16:15:28 10° SSE daylight
04 Nov - 18:01:57 10° SSW 18:04:51 13° S 18:07:49 10° SSE visible
05 Nov - 15:10:37 10° S 15:12:07 11° SSE 15:13:38 10° SSE daylight
05 Nov - 17:01:12 10° SSW 17:04:11 13° S 17:07:14 10° SSE visible
06 Nov - 16:00:46 10° SSW 16:03:33 13° S 16:06:23 10° SSE daylight
06 Nov - 17:54:08 10° SSW 17:55:39 11° SSW 17:57:09 10° S visible
